Location: Chervonnoye
(48.6000°N, 34.4000°E)
Time: 21:18:24
(UTC+00:00)

BEESAT 3 - Pass Details

Date: 13 December 2021
Orbit: 472 x 512 km, 64.9° (Epoch: 27 January)

Event Time Altitude Azimuth Distance (km) Brightness Sun altitude
Rises 15:09:18 0° 226° (SW) 2,552 ? -12.9°
Reaches altitude 10° 15:11:26 10° 230° (SW) 1,682 ? -13.2°
Maximum altitude 15:15:10 61° 311° (NW) 568 ? -13.8°
Enters shadow 15:17:55 18° 30° (NNE) 1,307 ? -14.2°
